| time (UTC) | temp F | wind direction | speed MPH | gust MPH | rain 1hr in | rain 24hr in | rain mn in | humidity % | barometer mb |
| 20260504003010 | 49 | 140 | 4.0 | 12.0 | 0.00 | 0.00 | 0.00 | 88 | 1018.9 |
| 20260504001529 | 49 | 286 | 4.0 | 11.0 | 0.00 | 0.00 | 0.00 | 87 | 1018.9 |
| 20260504000004 | 49 | 151 | 6.0 | 12.0 | 0.00 | 0.00 | 0.00 | 88 | 1019.2 |
| 20260503234522 | 49 | 125 | 4.0 | 10.0 | 0.00 | 0.00 | 0.00 | 88 | 1019.2 |
| 20260503233059 | 49 | 121 | 3.0 | 10.0 | 0.00 | 0.00 | 0.00 | 88 | 1019.3 |
| 20260503231520 | 49 | 132 | 4.0 | 11.0 | 0.00 | 0.00 | 0.00 | 87 | 1019.6 |
| 20260503230006 | 50 | 142 | 1.0 | 10.0 | 0.00 | 0.00 | 0.00 | 87 | 1019.5 |
| 20260503224514 | 50 | 94 | 1.0 | 15.0 | 0.00 | 0.00 | 0.00 | 87 | 1019.7 |
| 20260503223056 | 50 | 68 | 1.0 | 8.0 | 0.00 | 0.00 | 0.00 | 86 | 1019.8 |
| 20260503221514 | 50 | 175 | 1.0 | 10.0 | 0.00 | 0.00 | 0.00 | 86 | 1019.9 |
| 20260503220055 | 50 | 46 | 1.0 | 9.0 | 0.00 | 0.00 | 0.00 | 86 | 1019.9 |
| 20260503214522 | 50 | 109 | 2.0 | 10.0 | 0.00 | 0.00 | 0.00 | 83 | 1019.7 |
| 20260503213012 | 50 | 138 | 5.0 | 11.0 | 0.00 | 0.00 | 0.00 | 86 | 1019.6 |
| 20260503211526 | 50 | 57 | 2.0 | 7.0 | 0.00 | 0.00 | 0.00 | 84 | 1019.6 |
| 20260503210054 | 50 | 132 | 3.0 | 8.0 | 0.00 | 0.00 | 0.00 | 83 | 1019.6 |
| 20260503204519 | 51 | 123 | 6.0 | 9.0 | 0.00 | 0.00 | 0.00 | 83 | 1019.4 |
| 20260503203024 | 51 | 97 | 3.0 | 9.0 | 0.00 | 0.00 | 0.00 | 82 | 1019.4 |
| 20260503201540 | 52 | 105 | 3.0 | 9.0 | 0.00 | 0.00 | 0.00 | 76 | 1019.3 |
| 20260503200023 | 52 | 111 | 3.0 | 7.0 | 0.00 | 0.00 | 0.00 | 52 | 1019.3 |
| 20260503194558 | 52 | 77 | 1.0 | 3.0 | 0.00 | 0.00 | 0.00 | 48 | 1019.1 |
| 20260503193033 | 53 | 62 | 0.0 | 5.0 | 0.00 | 0.00 | 0.00 | 48 | 1019.0 |
| 20260503191555 | 52 | 92 | 1.0 | 3.0 | 0.00 | 0.00 | 0.00 | 51 | 1018.9 |
| 20260503190036 | 53 | 56 | 0.0 | 2.0 | 0.00 | 0.00 | 0.00 | 54 | 1018.9 |
| 20260503184629 | 53 | 333 | 1.0 | 6.0 | 0.00 | 0.00 | 0.00 | 52 | 1018.8 |
| 20260503184503 | 53 | 27 | 2.0 | 6.0 | 0.00 | 0.00 | 0.00 | 52 | 1018.8 |
| 20260503183046 | 53 | 314 | 1.0 | 7.0 | 0.00 | 0.00 | 0.00 | 51 | 1018.5 |
| 20260503181516 | 53 | 355 | 1.0 | 5.0 | 0.00 | 0.00 | 0.00 | 55 | 1018.3 |
| 20260503180006 | 53 | 37 | 2.0 | 6.0 | 0.00 | 0.00 | 0.00 | 59 | 1018.3 |
| 20260503174531 | 53 | 68 | 1.0 | 3.0 | 0.00 | 0.00 | 0.00 | 60 | 1018.1 |
| 20260503173006 | 54 | 305 | 0.0 | 2.0 | 0.00 | 0.00 | 0.00 | 60 | 1017.9 |
| 20260503171517 | 54 | 101 | 0.0 | 4.0 | 0.00 | 0.00 | 0.00 | 60 | 1017.8 |
| 20260503081559 | 59 | 317 | 0.0 | 9.0 | 0.00 | 0.00 | 0.00 | 55 | 1017.8 |
| 20260503071507 | 58 | 301 | 0.0 | 5.0 | 0.00 | 0.00 | 0.00 | 58 | 1017.7 |
| 20260503054516 | 49 | 17 | 1.0 | 4.0 | 0.00 | 0.00 | 0.00 | 78 | 1017.9 |
| 20260503053059 | 49 | 267 | 0.0 | 2.0 | 0.00 | 0.00 | 0.00 | 76 | 1017.6 |
| 20260503053005 | 49 | 56 | 0.0 | 2.0 | 0.00 | 0.00 | 0.00 | 75 | 1017.6 |
| 20260503051533 | 49 | 39 | 0.0 | 3.0 | 0.00 | 0.00 | 0.00 | 73 | 1017.6 |
| 20260503050005 | 48 | 360 | 2.0 | 5.0 | 0.00 | 0.00 | 0.00 | 73 | 1017.8 |
| 20260503044527 | 47 | 227 | 0.0 | 0.0 | 0.00 | 0.00 | 0.00 | 78 | 1017.7 |
| 20260503043044 | 48 | 228 | 0.0 | 0.0 | 0.00 | 0.00 | 0.00 | 77 | 1017.6 |
| 20260503041513 | 48 | 232 | 0.0 | 2.0 | 0.00 | 0.00 | 0.00 | 75 | 1017.6 |
| 20260503040016 | 48 | 120 | 0.0 | 2.0 | 0.00 | 0.00 | 0.00 | 72 | 1017.5 |
| 20260503034529 | 48 | 66 | 0.0 | 4.0 | 0.00 | 0.00 | 0.00 | 75 | 1017.6 |
| 20260503033011 | 48 | 71 | 2.0 | 8.0 | 0.00 | 0.00 | 0.00 | 76 | 1017.7 |
| 20260503031523 | 48 | 105 | 0.0 | 3.0 | 0.00 | 0.00 | 0.00 | 82 | 1017.9 |
| 20260503030127 | 47 | 68 | 0.0 | 2.0 | 0.00 | 0.00 | 0.00 | 83 | 1017.8 |
| 20260503030000 | 47 | 68 | 0.0 | 2.0 | 0.00 | 0.00 | 0.00 | 83 | 1017.8 |
| 20260503024512 | 47 | 16 | 0.0 | 6.0 | 0.00 | 0.00 | 0.00 | 83 | 1017.9 |
| 20260503023045 | 48 | 40 | 0.0 | 3.0 | 0.00 | 0.00 | 0.00 | 79 | 1018.0 |
| 20260503021606 | 48 | 66 | 3.0 | 6.0 | 0.00 | 0.00 | 0.00 | 77 | 1018.0 |
| 20260503021505 | 48 | 66 | 3.0 | 6.0 | 0.00 | 0.00 | 0.00 | 77 | 1018.1 |
| 20260503020005 | 48 | 226 | 2.0 | 8.0 | 0.00 | 0.00 | 0.00 | 69 | 1018.3 |
| 20260503014522 | 48 | 355 | 1.0 | 9.0 | 0.00 | 0.00 | 0.00 | 68 | 1018.3 |
| 20260503013003 | 48 | 281 | 0.0 | 6.0 | 0.00 | 0.00 | 0.00 | 70 | 1018.4 |
| 20260503011514 | 46 | 304 | 1.0 | 3.0 | 0.00 | 0.00 | 0.00 | 71 | 1018.6 |
| 20260503010103 | 46 | 44 | 0.0 | 2.0 | 0.00 | 0.00 | 0.00 | 68 | 1018.5 |
| 20260503004516 | 47 | 279 | 0.0 | 3.0 | 0.00 | 0.00 | 0.00 | 64 | 1018.3 |